K1BWE-1 Weather Reports


time (UTC)temp
C
wind
direction
speed
KPH
gust
KPH
rain 1hr
cm
rain 24hr
cm
rain mn
cm
humidity
%
barometer
mb
20260506092634 10 89 0.0 0.0 0.00 0.00 0.00 72 1015.9
20260506092131 10 95 0.0 0.0 0.00 0.00 0.00 73 1015.8
20260506091629 10 70 0.0 0.0 0.00 0.00 0.00 73 1016.0
20260506091126 11 338 0.0 0.0 0.00 0.00 0.00 73 1015.9
20260506090625 11 93 0.0 0.0 0.00 0.00 0.00 72 1015.5
20260506090120 11 67 0.0 0.0 0.00 0.00 0.00 74 1015.9
20260506085617 10 91 0.0 0.0 0.00 0.00 0.00 71 1015.8
20260506085114 11 178 0.0 0.0 0.00 0.00 0.00 72 1015.8
20260506084611 11 71 0.0 0.0 0.00 0.00 0.00 73 1015.9
20260506084107 10 50 0.0 0.0 0.00 0.00 0.00 78 1015.9
20260506083604 10 49 0.0 0.0 0.00 0.00 0.00 79 1015.6
20260506083102 11 48 0.0 0.0 0.00 0.00 0.00 79 1015.8
20260506082558 11 46 0.0 0.0 0.00 0.00 0.00 78 1016.0
20260506082054 11 50 0.0 0.0 0.00 0.00 0.00 77 1016.2
20260506081552 11 51 0.0 0.0 0.00 0.00 0.00 75 1016.2
20260506081049 11 99 0.0 0.0 0.00 0.00 0.00 75 1016.0
20260506080547 11 72 0.0 0.0 0.00 0.00 0.00 74 1016.2
20260506073027 12 87 0.0 0.0 0.00 0.00 0.00 70 1016.4
20260506072525 12 109 0.0 0.0 0.00 0.00 0.00 72 1016.1
20260506072022 12 143 0.0 0.0 0.00 0.00 0.00 68 1016.4
20260506071520 12 113 0.0 0.0 0.00 0.00 0.00 69 1016.2
20260506071017 13 113 0.0 0.0 0.00 0.00 0.00 68 1016.1
20260506070514 13 113 0.0 0.0 0.00 0.00 0.00 66 1016.3
20260506062451 13 243 0.0 0.0 0.00 0.69 0.69 50 1015.6
20260506061947 13 109 0.0 0.0 0.00 0.69 0.69 56 1016.0
20260506061444 13 221 0.0 0.0 0.00 0.69 0.69 52 1015.9
20260506060942 13 223 0.0 0.0 0.00 0.69 0.69 52 1015.6
20260506060440 14 225 0.0 0.0 0.00 0.69 0.69 53 1015.9
20260506051412 14 178 0.0 0.0 0.00 0.69 0.69 57 1015.5
20260506050909 13 127 0.0 0.0 0.00 0.69 0.69 63 1015.3
20260506050406 14 127 0.0 0.0 0.00 0.69 0.69 62 1015.4
20260506044857 15 109 0.0 0.0 0.00 0.69 0.69 60 1015.2
20260506044355 15 100 0.0 0.0 0.00 0.69 0.69 62 1015.1
20260506043851 14 65 0.0 0.0 0.00 0.69 0.69 57 1015.1
20260506043349 14 108 0.0 0.0 0.00 0.69 0.69 57 1015.1
20260506042847 14 100 0.0 0.0 0.00 0.69 0.69 56 1015.1
20260506042346 14 136 0.0 0.0 0.00 0.69 0.69 58 1015.0
20260506041844 15 87 0.0 0.0 0.00 0.69 0.69 56 1014.9
20260506041341 15 85 0.0 0.0 0.00 0.69 0.69 54 1015.1
20260506040837 15 86 0.0 0.0 0.00 0.69 0.69 54 1014.9
20260506040335 15 103 0.0 0.0 0.00 0.69 0.69 59 1014.5
20260506035831 15 112 0.0 0.0 0.00 0.69 0.69 56 1014.4
20260506035329 15 153 0.0 0.0 0.00 0.69 0.69 54 1014.4
20260506034826 15 96 0.0 0.0 0.00 0.69 0.69 51 1014.7
20260506034323 15 171 0.0 0.0 0.00 0.69 0.69 50 1014.1
20260506033820 15 170 0.0 0.0 0.00 0.69 0.69 50 1014.3
20260506033317 16 176 0.0 1.6 0.00 0.69 0.69 47 1014.4
20260506032814 16 65 0.0 0.0 0.00 0.69 0.69 47 1014.1
20260506032311 16 164 0.0 0.0 0.00 0.69 0.69 47 1014.0
20260506031807 16 40 0.0 1.6 0.00 0.69 0.69 46 1013.8
20260506031305 17 248 1.6 1.6 0.00 0.69 0.69 45 1013.8
20260506030802 17 225 3.2 4.8 0.00 0.69 0.69 44 1013.9
20260506030300 17 260 4.8 4.8 0.00 0.69 0.69 43 1013.6
20260506025757 17 295 1.6 1.6 0.00 0.69 0.69 44 1013.7
20260506025253 17 195 0.0 0.0 0.00 0.69 0.69 43 1013.4
20260506024750 17 187 3.2 3.2 0.00 0.69 0.69 42 1013.7
20260506024247 17 199 1.6 1.6 0.00 0.69 0.69 42 1013.3
20260506023743 17 248 1.6 3.2 0.00 0.69 0.69 42 1013.2
20260506023240 17 233 1.6 1.6 0.00 0.69 0.69 41 1013.2
20260506022737 18 197 1.6 3.2 0.00 0.69 0.69 41 1013.2
20260506022235 18 231 4.8 9.7 0.00 0.69 0.69 40 1013.0
20260506021733 18 259 4.8 4.8 0.00 0.69 0.69 39 1012.9
20260506021229 18 257 4.8 8.0 0.00 0.69 0.69 38 1012.8
20260506020726 18 273 1.6 3.2 0.00 0.69 0.69 38 1012.9
20260506020224 18 236 3.2 3.2 0.00 0.69 0.69 37 1012.6
20260506015721 18 233 6.4 11.3 0.00 0.69 0.69 35 1012.6
20260506015219 18 174 4.8 4.8 0.00 0.69 0.69 36 1012.5
20260506014716 18 323 8.0 12.9 0.00 0.69 0.69 34 1012.5
20260506014212 19 251 3.2 3.2 0.00 0.69 0.69 33 1012.4
20260506013709 19 242 9.7 14.5 0.00 0.69 0.69 32 1012.4
20260506013206 20 281 4.8 8.0 0.00 0.69 0.69 32 1012.5
20260506012702 20 245 3.2 3.2 0.00 0.69 0.69 33 1012.5
20260506012159 20 262 6.4 11.3 0.00 0.69 0.69 33 1012.5
20260506011657 20 289 6.4 9.7 0.00 0.69 0.69 34 1012.5
20260506011153 20 204 4.8 8.0 0.00 0.69 0.69 34 1012.1
20260506010652 20 273 6.4 9.7 0.00 0.69 0.69 33 1012.1
20260506010148 20 284 4.8 8.0 0.00 0.69 0.69 34 1012.0
20260506005645 21 272 4.8 8.0 0.00 0.69 0.69 34 1012.1
20260506005142 21 283 9.7 11.3 0.00 0.69 0.69 33 1011.7
20260506004632 21 211 6.4 8.0 0.00 0.69 0.69 33 1011.9
20260506004129 21 192 6.4 11.3 0.00 0.69 0.69 32 1011.8
20260506003620 21 257 6.4 8.0 0.00 0.69 0.69 33 1011.9
20260506003116 21 209 6.4 9.7 0.00 0.69 0.69 32 1011.9
20260506002612 21 157 6.4 8.0 0.00 0.69 0.69 33 1011.6
20260506002109 21 280 11.3 16.1 0.00 0.69 0.69 32 1011.5
20260506001605 22 248 4.8 4.8 0.00 0.69 0.69 35 1011.7
20260506001102 21 320 8.0 12.9 0.00 0.69 0.69 33 1011.8
20260506000600 22 271 6.4 8.0 0.00 0.69 0.69 34 1011.5
20260506000057 22 273 12.9 22.5 0.00 0.69 0.69 33 1011.7
20260505235555 22 262 11.3 12.9 0.00 0.69 0.69 33 1011.4
20260505235052 22 295 6.4 9.7 0.00 0.69 0.69 33 1011.6
20260505234548 22 287 11.3 16.1 0.00 0.69 0.69 32 1011.5
20260505234044 22 292 8.0 11.3 0.00 0.69 0.69 33 1011.5
20260505233542 22 142 8.0 11.3 0.00 0.69 0.69 32 1011.3
20260505233039 22 230 8.0 11.3 0.00 0.69 0.69 33 1011.4
20260505232537 22 296 11.3 20.9 0.00 0.69 0.69 31 1011.6
20260505232035 22 268 6.4 9.7 0.00 0.69 0.69 31 1011.4
20260505231531 22 324 4.8 8.0 0.00 0.69 0.69 32 1011.7
20260505231030 22 235 6.4 8.0 0.00 0.69 0.69 32 1011.6
20260505230527 22 249 11.3 12.9 0.00 0.69 0.69 31 1011.4
20260505230023 22 266 4.8 8.0 0.00 0.69 0.69 32 1011.4
20260505225520 22 256 9.7 12.9 0.00 0.69 0.69 32 1011.7
20260505225016 22 229 4.8 8.0 0.00 0.69 0.69 33 1011.6
20260505224514 22 269 4.8 8.0 0.00 0.69 0.69 33 1011.7
20260505224011 22 258 12.9 20.9 0.00 0.69 0.69 33 1011.6
20260505223508 21 257 9.7 12.9 0.00 0.69 0.69 34 1011.6
20260505223004 21 263 9.7 11.3 0.00 0.69 0.69 34 1011.8
20260505222500 21 160 9.7 11.3 0.00 0.69 0.69 35 1011.8
20260505221956 22 260 4.8 4.8 0.00 0.69 0.69 35 1011.9
20260505221453 21 263 3.2 4.8 0.00 0.69 0.69 36 1011.8
20260505220950 22 252 9.7 12.9 0.00 0.69 0.69 34 1011.8
20260505220447 21 195 4.8 4.8 0.00 0.69 0.69 37 1012.0
20260505215945 22 287 8.0 11.3 0.00 0.69 0.69 36 1012.0
20260505215443 23 259 6.4 9.7 0.00 0.69 0.69 35 1012.4
20260505214941 22 284 9.7 12.9 0.00 0.69 0.69 35 1012.1
20260505214438 22 244 4.8 8.0 0.00 0.69 0.69 37 1012.2
20260505213935 22 279 11.3 14.5 0.00 0.69 0.69 36 1012.7
20260505213433 21 201 6.4 9.7 0.00 0.69 0.69 39 1012.2
20260505212929 21 322 9.7 12.9 0.00 0.69 0.69 41 1012.2
20260505212426 21 278 8.0 9.7 0.00 0.69 0.69 44 1012.4
20260505211922 20 314 6.4 8.0 0.00 0.69 0.69 45 1012.1
20260505211420 21 257 9.7 12.9 0.00 0.69 0.69 45 1012.8
20260505210916 21 309 6.4 8.0 0.00 0.69 0.69 46 1012.5
20260505210414 20 278 4.8 8.0 0.00 0.69 0.69 49 1012.7
20260505205910 20 252 9.7 12.9 0.00 0.69 0.69 49 1012.8
20260505205409 20 266 8.0 12.9 0.00 0.69 0.69 52 1012.8
20260505204905 20 268 12.9 16.1 0.00 0.69 0.69 51 1012.9
20260505204403 20 257 9.7 11.3 0.00 0.69 0.69 51 1012.8
20260505203900 21 225 9.7 11.3 0.00 0.69 0.69 48 1012.7
20260505203356 21 218 6.4 9.7 0.00 0.69 0.69 49 1012.8
20260505202853 21 214 11.3 14.5 0.00 0.69 0.69 46 1012.7
20260505202349 22 216 8.0 9.7 0.00 0.69 0.69 43 1012.5
20260505201846 22 281 9.7 14.5 0.00 0.69 0.69 44 1012.9
20260505201343 21 159 4.8 4.8 0.00 0.69 0.69 50 1013.0
20260505200841 21 294 8.0 9.7 0.00 0.69 0.69 45 1012.7
20260505200338 21 275 4.8 9.7 0.00 0.69 0.69 51 1013.1
20260505195833 21 163 1.6 3.2 0.00 0.69 0.69 53 1012.9
20260505195331 21 192 6.4 9.7 0.00 0.69 0.69 52 1013.1
20260505194828 19 232 4.8 9.7 0.00 0.69 0.69 57 1013.2
20260505194325 20 277 8.0 9.7 0.00 0.69 0.69 58 1013.3
20260505193820 20 255 9.7 11.3 0.00 0.69 0.69 52 1013.0
20260505193318 20 265 9.7 11.3 0.00 0.69 0.69 56 1013.3
20260505192816 20 293 6.4 8.0 0.00 0.69 0.69 55 1013.2
20260505192314 20 271 3.2 4.8 0.00 0.69 0.69 55 1013.0
20260505191812 21 66 1.6 1.6 0.00 0.69 0.69 53 1013.2
20260505191310 20 204 0.0 0.0 0.00 0.69 0.69 56 1013.3
20260505190806 20 91 0.0 1.6 0.00 0.69 0.69 59 1013.6
20260505190301 20 250 1.6 1.6 0.00 0.69 0.69 57 1013.7
20260505185757 19 235 4.8 8.0 0.00 0.69 0.69 57 1013.8
20260505185254 18 251 3.2 3.2 0.00 0.69 0.69 61 1013.9
20260505184750 19 241 1.6 3.2 0.00 0.69 0.69 59 1013.9
20260505184248 18 269 3.2 4.8 0.00 0.69 0.69 62 1013.8
20260505183744 19 247 4.8 9.7 0.00 0.69 0.69 58 1013.9
20260505183242 19 243 3.2 3.2 0.00 0.69 0.69 59 1014.0
20260505182738 19 299 8.0 11.3 0.00 0.69 0.69 58 1014.1
20260505182235 18 234 3.2 3.2 0.00 0.69 0.69 64 1014.0
20260505181731 18 209 1.6 1.6 0.00 0.69 0.69 66 1014.0
20260505181229 18 122 1.6 1.6 0.00 0.69 0.69 64 1014.2
20260505180725 17 268 6.4 9.7 0.00 0.69 0.69 64 1014.3
20260505180222 18 241 4.8 4.8 0.00 0.69 0.69 63 1014.3
20260505175713 18 219 4.8 4.8 0.00 0.69 0.69 61 1014.1
20260505175209 19 198 4.8 4.8 0.00 0.69 0.69 64 1014.2
20260505174706 17 196 1.6 1.6 0.00 0.69 0.69 69 1014.4
20260505174203 17 239 1.6 3.2 0.00 0.69 0.69 67 1014.2
20260505173659 17 230 1.6 3.2 0.00 0.69 0.69 67 1014.2
20260505173156 17 263 3.2 3.2 0.00 0.69 0.69 70 1014.1
20260505172653 17 167 4.8 4.8 0.00 0.69 0.69 70 1014.2
20260505172149 17 236 3.2 3.2 0.00 0.69 0.69 71 1014.0
20260505171644 16 295 4.8 4.8 0.00 0.69 0.69 71 1014.2
20260505171141 16 199 0.0 1.6 0.00 0.69 0.69 73 1014.3
20260505170638 16 229 3.2 3.2 0.00 0.69 0.69 74 1014.3
20260505170134 16 262 1.6 3.2 0.00 0.69 0.69 74 1014.1
20260505165629 17 167 1.6 3.2 0.00 0.69 0.69 74 1014.0
20260505165126 17 280 1.6 1.6 0.00 0.69 0.69 75 1014.3
20260505164621 17 231 4.8 4.8 0.00 0.69 0.69 73 1014.4
20260505164119 16 195 4.8 4.8 0.00 0.69 0.69 77 1014.2
20260505163617 16 260 1.6 1.6 0.00 0.69 0.69 79 1014.2
20260505163114 15 169 4.8 8.0 0.00 0.69 0.69 79 1014.3
20260505162612 15 240 0.0 0.0 0.00 0.69 0.69 81 1014.5
20260505162110 15 195 1.6 3.2 0.00 0.69 0.69 82 1014.1
20260505161606 15 177 1.6 3.2 0.00 0.69 0.69 81 1014.3
20260505161104 15 197 1.6 3.2 0.00 0.69 0.69 84 1014.3
20260505160601 15 287 4.8 4.8 0.00 0.69 0.69 85 1014.1
20260505153038 15 192 0.0 0.0 0.00 0.69 0.69 91 1014.2
20260505152535 15 205 0.0 1.6 0.00 0.69 0.69 91 1014.1
20260505152030 14 195 0.0 1.6 0.00 0.69 0.69 91 1014.0
20260505151525 14 215 0.0 0.0 0.00 0.69 0.69 92 1014.1
20260505151023 14 223 0.0 0.0 0.00 0.69 0.69 92 1014.0
20260505150519 14 228 0.0 1.6 0.00 0.69 0.69 93 1014.0
20260505140444 13 297 0.0 0.0 0.00 0.69 0.69 97 1013.9
20260505124858 12 83 0.0 0.0 0.00 0.69 0.69 97 1013.1
20260505124355 12 41 0.0 0.0 0.00 0.69 0.69 97 1013.0
20260505123851 12 36 0.0 0.0 0.00 0.69 0.69 97 1012.9
20260505123348 12 35 0.0 0.0 0.00 0.69 0.69 97 1012.7
20260505122843 12 261 0.0 0.0 0.00 0.69 0.69 97 1012.8
20260505122341 12 273 1.6 1.6 0.00 0.69 0.69 97 1012.9
20260505121838 12 285 0.0 0.0 0.00 0.69 0.69 97 1012.9
20260505121335 12 323 1.6 1.6 0.00 0.69 0.69 97 1012.9
20260505120831 12 317 0.0 0.0 0.00 0.69 0.69 97 1012.9
20260505120327 12 23 1.6 1.6 0.00 0.69 0.69 97 1012.6
20260505115826 12 347 0.0 0.0 0.00 0.69 0.69 97 1012.7
20260505115323 12 349 1.6 1.6 0.00 0.69 0.69 97 1012.5
20260505114821 12 79 0.0 0.0 0.13 0.69 0.69 97 1012.4
20260505114317 12 39 0.0 1.6 0.13 0.69 0.69 97 1012.6
20260505113814 13 258 0.0 0.0 0.00 0.66 0.66 97 1012.7
20260505113310 13 294 1.6 1.6 0.00 0.66 0.66 97 1012.7
20260505112806 13 303 1.6 1.6 0.00 0.66 0.66 97 1012.8
20260505112305 13 26 1.6 1.6 0.00 0.66 0.66 97 1012.6
20260505111759 13 59 0.0 0.0 0.00 0.66 0.66 97 1012.7
20260505111254 13 42 1.6 1.6 0.18 0.66 0.66 97 1012.6
20260505110750 13 54 0.0 1.6 0.18 0.66 0.66 97 1012.8
20260505110249 13 4 0.0 0.0 0.00 0.64 0.64 97 1012.9
20260505101722 13 24 1.6 1.6 0.18 0.56 0.56 97 1013.4
20260505101218 13 305 1.6 1.6 0.00 0.53 0.53 97 1013.6
20260505100715 13 301 0.0 0.0 0.00 0.53 0.53 97 1013.6
20260505100212 13 297 1.6 1.6 0.00 0.53 0.53 97 1013.6
20260505095707 13 338 0.0 1.6 0.00 0.53 0.53 97 1013.2
20260505095206 13 56 0.0 0.0 0.13 0.53 0.53 97 1013.3
20260505094701 13 10 0.0 1.6 0.13 0.53 0.53 97 1013.3
20260505094157 13 65 0.0 0.0 0.18 0.51 0.51 96 1013.2
20260505093654 13 63 0.0 1.6 0.18 0.51 0.51 96 1013.7
20260505093151 13 64 0.0 0.0 0.13 0.48 0.48 96 1013.7